Regional Weather Roundup
Issued by NWS

Home | Current Version | Previous Version | Graphics & Text | Print | Product List | Glossary On
Versions: 1 2 3 4 5 6 7 8 9 10 11 12 13 14 15 16 17 18 19 20 21 22 23 24 25 26 27 28 29 30 31 32 33 34 35 36 37 38 39 40 41 42 43 44 45 46 47 48 49 50
044
ASUS45 KCYS 250510
RWRWY

WYOMING REGIONAL WEATHER ROUNDUP
NATIONAL WEATHER SERVICE CHEYENNE WY
1100 PM MDT SAT SEP 24 2016

NOTE:  "FAIR" INDICATES FEW OR NO CLOUDS BELOW 12,000 FEET
WITH NO SIGNIFICANT WEATHER AND/OR OBSTRUCTIONS TO VISIBILITY.

WYZ001-250600-
YELLOWSTONE NATIONAL PARK

CITY           SKY/WX    TMP DP  RH WIND       PRES   REMARKS
LK YELLOWSTONE   N/A     29  28  96 NW3       30.45R
W YELLOWSTONE  NOT AVBL

$$
WYZ002>013-054>058-071-098>099-250600-
NORTHERN WYOMING

CITY           SKY/WX    TMP DP  RH WIND       PRES   REMARKS
JACKSON        FAIR      39  36  87 CALM      30.40R
CODY           CLOUDY    47  40  76 E3        30.33R
GREYBULL       CLOUDY    49  46  90 CALM      30.29R
WORLAND        CLOUDY    46  42  86 SW9       30.29R
SHERIDAN       CLOUDY    49  45  86 NW13      30.26R
BUFFALO        CLOUDY    47  41  80 N22       30.26R
GILLETTE       CLOUDY    46  44  93 NW17G29   30.22R
HULETT         CLOUDY    46  43  87 NW15G23   30.17R
NEWCASTLE      CLOUDY    45  43  93 NW16      30.18R

$$
WYZ014>020-022>026-101>103-250600-
CENTRAL WYOMING

CITY           SKY/WX    TMP DP  RH WIND       PRES   REMARKS
BIG PINEY      FAIR      35  31  85 NW9       30.41R WCI  28
PINEDALE       FAIR      34  32  93 W7        30.40S WCI  28
DUBOIS         FAIR      43  28  56 W15       30.38R
LANDER         MOCLDY    41  38  89 SE8       30.35R
RIVERTON       CLOUDY    43  40  89 W5        30.36R
CASPER         FAIR      43  38  82 SW10      30.32R
DOUGLAS        FAIR      48  38  68 NW15      30.28R

$$
WYZ021-027>030-104>119-250600-
SOUTHERN WYOMING

CITY           SKY/WX    TMP DP  RH WIND       PRES   REMARKS
EVANSTON       FAIR      42  32  67 S3        30.44R
FORT BRIDGER   FAIR      42  35  77 W9        30.46S
ROCK SPRINGS   FAIR      40  34  79 W5        30.40R
DIXON          CLOUDY    43  40  91 CALM      30.43R
RAWLINS        CLOUDY    41  37  86 NW5       30.41R
SARATOGA       CLOUDY    41  41 100 NW3       30.41R
LARAMIE        CLOUDY    41  34  76 NW10      30.36R
CHEYENNE       MOCLDY    46  35  65 NW14G22   30.30R
TORRINGTON     FAIR      47  39  74 CALM      30.25R
PINE BLUFFS    FAIR      45  36  70 NW18G24   30.27R

$$




USA.gov is the U.S. government's official web portal to all federal, state and local government web resources and services.